www.pogodaiklimat.ru

Погода и климат >> Архив погоды >> Италия >> Венеция аэропорт


ПОГОДА в Венеция аэропорту

  • Прогноз погоды в Венеция аэропорту
  • Монитор погоды в Венеция аэропорту

АРХИВ ПОГОДЫ в Венеция аэропорту

Время (UTC), дата Ветер
(напр.,м/с)
 
Видим.   Явления Облачность Т
(С)
Тd
(С)
f
(%)
Тe
(С)
Тes
(С)
Комфортность P
(гПа)
Po
(гПа)
Тmin
(С)
Tmax
(С)
R
(мм)
R24
(мм)
S
(см)
09 11.06 ЮВ 4 н/о н/о +25.4 +23.2 88 +34 +34 очень
душно
1009.5 1008.8
12 11.06 Ю 4 н/о н/о +25.7 +23.9 90 +35 +35 очень
душно
1009.5 1008.8
15 11.06 Ю 2 н/о н/о +25.8 +22.4 82 +34 +34 очень
душно
1008.9 1008.2
18 11.06 ЮВ 3 н/о н/о +24.3 +20.4 79 +30 +30 очень
душно
1008.9 1008.2 +26.8
21 11.06 В 4 н/о н/о +23.1 +20.8 87 +31 +31 очень
душно
1009.6 1008.9
00 12.06 ЮВ 2 н/о н/о +23.5 +20.6 84 +29 +29 душно 1009.5 1008.8
03 12.06 В 4 н/о н/о +21.1 +19.2 89 +26 +26 душно 1008.8 1008.1
06 12.06 ЮВ 2 н/о н/о +24.3 +21.9 86 +31 +31 очень
душно
1009.1 1008.4 +20.9 304
09 12.06 ЮВ 4 н/о н/о +25.7 +23.5 88 +35 +35 очень
душно
1010.0 1009.3
12 12.06 ЮВ 3 н/о н/о +25.9 +23.9 89 +36 +36 очень
душно
1010.2 1009.5
15 12.06 ЮВ 4 н/о н/о +25.9 +23.7 88 +35 +35 очень
душно
1009.7 1009.0
18 12.06 ЮВ 2 н/о н/о +24.0 +22.2 90 +31 +31 очень
душно
1009.8 1009.1 +26.9
21 12.06 В 2 н/о н/о +22.9 +21.1 90 +30 +30 очень
душно
1011.1 1010.4
00 13.06 В 2 н/о н/о +22.5 +20.9 91 +29 +29 очень
душно
1011.1 1010.4
03 13.06 СВ 2 н/о н/о +22.0 +20.4 91 +28 +28 душно 1011.3 1010.6
06 13.06 З 3 н/о н/о +22.5 +20.9 91 +29 +29 очень
душно
1013.1 1012.4 +21.3 704
09 13.06 З 3 н/о н/о +25.7 +21.5 78 +33 +33 очень
душно
1014.5 1013.8
12 13.06 З 4 н/о н/о +29.2 +8.3 27 +29 +29 жарко 1014.9 1014.2
15 13.06 Ю 4 н/о н/о +28.0 +17.8 54 +32 +32 душно 1015.1 1014.4
18 13.06 ЮЗ 4 н/о н/о +25.8 +16.0 55 +29 +29 душно 1015.7 1015.0 +30.8
21 13.06 З 2 н/о н/о +23.3 +17.0 68 +28 +28 душно 1017.1 1016.4
00 14.06 штиль 0 н/о н/о +20.4 +17.3 82 +23 +23 комфорт 1017.3 1016.6
03 14.06 В 2 н/о н/о +17.6 +15.2 86 +18 +18 1017.1 1016.4
06 14.06 В 3 н/о н/о +21.2 +18.5 85 +26 +26 душно 1018.4 1017.7 +17.3 1
09 14.06 ЮВ 3 н/о н/о +25.6 +20.6 74 +32 +32 очень
душно
1019.3 1018.6
12 14.06 ЮВ 3 н/о н/о +26.5 +18.8 63 +32 +32 очень
душно
1018.6 1017.9
15 14.06 Ю 2 н/о н/о +27.3 +15.3 48 +30 +30 душно 1017.4 1016.7
18 14.06 ЮВ 2 н/о н/о +25.4 +14.5 51 +28 +28 жарко 1015.3 1014.6 +28.2
21 14.06 В 1 н/о н/о +22.0 +14.3 62 +25 +25 комфорт 1015.9 1015.2
00 15.06 В 1 н/о н/о +22.6 +15.8 65 +27 +27 душно 1014.3 1013.6
03 15.06 З 1 н/о н/о +23.0 +16.5 67 +28 +28 душно 1014.0 1013.3
06 15.06 СВ 1 н/о н/о +22.0 +19.3 85 +27 +27 душно 1013.3 1012.6 +20.4 301
09 15.06 В 3 н/о н/о +28.1 +20.8 65 +35 +35 очень
душно
1013.6 1012.9
12 15.06 ЮВ 4 н/о н/о +28.3 +22.3 70 +37 +37 очень
душно
1013.4 1012.7
15 15.06 ЮВ 4 н/о н/о +27.7 +24.7 84 +39 +39 очень
душно
1012.5 1011.8
18 15.06 ЮЗ 3 н/о н/о +27.8 +22.9 75 +37 +37 очень
душно
1011.1 1010.4 +28.7
21 15.06 З 3 н/о н/о +26.3 +20.8 72 +33 +33 очень
душно
1012.1 1011.4
00 16.06 З 2 н/о н/о +24.4 +19.8 76 +30 +30 очень
душно
1012.4 1011.7
03 16.06 З 3 н/о н/о +22.9 +19.4 81 +29 +29 очень
душно
1011.9 1011.2
06 16.06 З 2 н/о н/о +22.1 +19.0 83 +28 +28 душно 1012.6 1011.9 +21.3 1
09 16.06 С 1 н/о н/о +26.9 +21.8 74 +35 +35 очень
душно
1013.2 1012.5
12 16.06 Ю 4 н/о н/о +28.2 +22.2 70 +37 +37 очень
душно
1013.1 1012.4
15 16.06 Ю 4 н/о н/о +28.2 +22.8 73 +38 +38 очень
душно
1012.1 1011.4

 

Местоположение метеостанции Венеция аэропорт (Италия): широта 45.43 долгота 12.38 высота над уровнем моря 6 м.

В архиве по умолчанию представлена погода в Венеция аэропорту за последнюю неделю. Архивные данные за месяц целиком и за предыдущие месяцы, начиная с января 2011 года, Вы можете получить, выбрав интересующий диапазон дат из раскрывающегося списка и нажав кнопку "Ввод!".


*Определитесь, кто Вы:
робот инопланетянин человек

Внимание! Время в таблицах - всемирное. Для получения местного времени необходимо прибавить поправку, которая равна 1 ч.

Смотрите также архив погоды в соседних городах и на ближайших метеорологических станциях:

Погода в Венеции (Италия) (9 км)
Погода в Тревизо (Италия) (29 км)
Погода в Тревизо аэропорту (Италия) (35 км)
Погода в Конкордия-Саджиттарии (Италия) (51 км)
Погода в Авиано (Италия) (69 км)
Погода на Базе ВВС Авиано (Италия) (69 км)
Погода на Базе ВВС Риволто (Италия) (79 км)
Погода в Ферраре (Италия) (89 км)
Погода в Портороже (Словения) (93 км)
Погода в Ронки-деи-Леджонари (Италия) (96 км)

Пояснения к столбцам:

Ветер - указаны скорость ветра в м/с - средняя за 10 мин, порывы в срок и между сроками (в фигурных скобках) и направление, откуда дует ветер: С - северный, СВ - северо-восточный, В - восточный, ЮВ - юго-восточный, Ю - южный, ЮЗ - юго-западный, З - западный, СЗ - северо-западный.
Видимость - горизонтальная дальность видимости в метрах или километрах. При видимости от 1 до 10 км при отсутствии осадков обычно наблюдается дымка, при ухудшении видимости до 1 км и менее - туман. В сухую погоду видимость может ухудшаться дымом, пылью или мглою.
Явления - указаны атмосферные явления, наблюдавшиеся в срок или в последний час перед сроком; фигурными скобками обозначены явления, наблюдавшиеся между сроками (за 1-3 часа до срока); квадратными скобками обозначены град или гололедные отложения с указанием их диаметра в мм.
Облачность - указаны через наклонную черту общая и нижняя облачность в баллах и высота нижней границы облаков в метрах; квадратными скобками обозначены формы облаков: Ci - перистые, Cs - перисто-слоистые, Cc - перисто-кучевые, Ac - высококучевые, As - высокослоистые, Sc - слоисто-кучевые, Ns - слоисто-дождевые, Cu - кучевые, Cb - кучево-дождевые. Подробнее классификацию облаков см. в Атласе облаков (PDF).
T - Температура воздуха - температура, измеренная на высоте 2 м над землей.
Td - Температура точки росы - температура, при понижении до которой содержащийся в воздухе водяной пар достигнет насыщения.
f - Относительная влажность воздуха - влажноcть воздуха, измеренная на высоте 2 м над землей.
Te - Эффективная температура - температура, которую ощущает одетый по сезону человек в тени. Характеристика душности погоды. При расчете учитывается влияние влажности воздуха и скорости ветра на теплоощущения человека.
Tes - Эффективная температура на солнце - температура, которую ощущает человек, с поправкой на солнечный нагрев. Характеристика знойности погоды. Зависит от высоты солнца над горизонтом, облачности и скорости ветра. Ночью, в пасмурную погоду, а также при ветре 12 м/с и более поправка равна нулю.
P - Атмосферное давление - приведенное к уровню моря атмосферное давление.
Po - Атмосферное давление - измеренное на уровне метеостанции атмосферное давление.
Tmin - Минимальная температура - минимум температуры воздуха на высоте 2 м над землей.
Tmax - Максимальная температура - максимум температуры воздуха на высоте 2 м над землей.
R - Количество осадков - Количество выпавших осадков за период времени, мм. При наведении курсора мыши на число - период времени, за который выпало указанное количество осадков.
R24 - Количество осадков - Количество выпавших осадков за 24 часа, мм.
S - Снежный покров - Высота снежного покрова, см. При наведении курсора мыши на число - состояние снежного покрова и степень покрытия местности в баллах.